Simultaneous Nadir Overpasses (SNOs) Predictions

Prediction of SNOs between AQUA and METOP-C Satellite Orbit:

Table of predicted SNOs for the next 14.0 days since TLE Epoch: 6/5/2021
Index Date (AQUA) Time (AQUA) Lat,Lon (AQUA) SZA (AQUA ) Date (METOP-C) Time (METOP-C) Lat,Lon (METOP-C) SZA (METOP-C ) Distance(km) Time Diff (sec)
1 06/07/2021 09:32:11 -73.71,-148.60 129.09 06/07/2021 09:31:47 -73.71,-148.70 129.09 3.07 24
2 06/07/2021 10:21:40 73.81, 18.83 51.01 06/07/2021 10:22:24 73.81, 18.87 51.00 1.22 44
3 06/10/2021 05:06:26 -73.74, -82.23 129.29 06/10/2021 05:06:07 -73.74, -82.21 129.29 0.73 19
4 06/10/2021 05:55:54 73.79, 85.30 50.76 06/10/2021 05:56:45 73.78, 85.22 50.75 2.64 51
5 06/12/2021 23:51:05 73.21, 177.69 49.97 06/12/2021 23:49:57 73.18, 175.59 50.02 67.32 68
6 06/13/2021 00:40:41 -73.73, -15.77 129.48 06/13/2021 00:40:29 -73.72, -15.85 129.48 2.54 12
7 06/13/2021 01:30:10 73.84, 151.64 50.63 06/13/2021 01:31:06 73.81, 151.69 50.60 3.31 56
8 06/15/2021 19:25:25 73.47,-116.41 50.12 06/15/2021 19:24:14 73.41,-117.50 50.11 35.12 71
9 06/15/2021 20:14:56 -73.73, 50.67 129.61 06/15/2021 20:14:50 -73.75, 50.63 129.58 3.17 6
10 06/15/2021 21:04:25 73.83,-141.92 50.50 06/15/2021 21:05:27 73.83,-141.85 50.49 2.10 62
11 06/18/2021 14:59:43 73.68, -50.43 50.28 06/18/2021 14:58:30 73.63, -50.58 50.24 7.63 73
12 06/18/2021 15:49:11 -73.78, 117.00 129.62 06/18/2021 15:49:10 -73.78, 117.09 129.63 3.08 1



Historial Predications of SNOs between AQUA and METOP-C
